Weather History for KFRM - August, 2014

Change the Weather History Date:

Monday, August 11, 2014

  Actual Average Record
Temperature  
Mean Temperature 68 °F -  
Max Temperature 77 °F 80 °F 92 °F (1958)
Min Temperature 60 °F 57 °F 44 °F (2004)
Cooling Degree Days 4    
Growing Degree Days 18 (Base 50)    
Moisture  
Dew Point 54 °F    
Average Humidity 64    
Maximum Humidity 88    
Minimum Humidity 41    
Precipitation  
Precipitation 0.00 in - - ()
Sea Level Pressure  
Sea Level Pressure 30.05 in    
Wind  
Wind Speed 12 mph (NW)    
Max Wind Speed 22 mph    
Max Gust Speed 29 mph    
Visibility 10 miles    
Events      
Averages and records for this station are not official NWS values.
T = Trace of Precipitation, MM = Missing Value Source: NWS Daily Summary

Daily Weather History Graph

Daily Weather History Graph

Search for Another Location

Airport or City:

Trip Planner

Search our weather history database for the weather conditions in past years. The results will help you decide how hot, cold, wet, or windy it might be!

Date:

Astronomy

Aug. 11, 2014 Rise Set
Actual Time 6:17 AM CDT 8:27 PM CDT
Civil Twilight 5:46 AM CDT 8:58 PM CDT
Nautical Twilight 5:07 AM CDT 9:37 PM CDT
Astronomical Twilight 4:24 AM CDT 10:19 PM CDT
Moon 8:51 PM CDT (8/11) 7:27 AM CDT (8/11)
Length of Visible Light 15h 12m
Length of Day
14h 09m
Full, 99% of the Moon is Illuminated
Aug 11
Full
Aug 17
Last Quarter
Aug 25
New
Sep 2
First Quarter
Sep 8
Full

Hourly Weather History & Observations

Time (CDT) Temp. Dew Point Humidity Pressure Visibility Wind Dir Wind Speed Gust Speed Precip Events Conditions
12:15 AM 66.2 °F 62.6 °F 88% 30.02 in 10.0 mi NW 10.4 mph - N/A   Partly Cloudy
12:35 AM 66.2 °F 62.6 °F 88% 30.03 in 10.0 mi NW 9.2 mph 16.1 mph N/A   Partly Cloudy
12:55 AM 66.2 °F 62.6 °F 88% 30.03 in 10.0 mi NW 12.7 mph - N/A   Clear
1:15 AM 66.2 °F 60.8 °F 83% 30.03 in 10.0 mi NW 10.4 mph - N/A   Clear
1:35 AM 66.2 °F 60.8 °F 83% 30.03 in 10.0 mi NW 8.1 mph - N/A   Partly Cloudy
1:55 AM 66.2 °F 60.8 °F 83% 30.03 in 10.0 mi NW 9.2 mph - N/A   Scattered Clouds
2:15 AM 64.4 °F 60.8 °F 88% 30.02 in 10.0 mi NW 9.2 mph - N/A   Clear
2:35 AM 64.4 °F 60.8 °F 88% 30.02 in 10.0 mi NW 9.2 mph - N/A   Clear
2:55 AM 64.4 °F 59.0 °F 83% 30.02 in 10.0 mi NW 11.5 mph - N/A   Clear
3:15 AM 64.4 °F 57.2 °F 77% 30.02 in 10.0 mi NW 10.4 mph - N/A   Clear
3:35 AM 62.6 °F 57.2 °F 82% 30.02 in 10.0 mi NW 11.5 mph - N/A   Clear
3:55 AM 62.6 °F 57.2 °F 82% 30.02 in 10.0 mi NW 12.7 mph - N/A   Clear
4:15 AM 62.6 °F 55.4 °F 77% 30.02 in 10.0 mi NW 11.5 mph - N/A   Partly Cloudy
4:35 AM 62.6 °F 55.4 °F 77% 30.02 in 10.0 mi NW 11.5 mph - N/A   Clear
4:55 AM 62.6 °F 55.4 °F 77% 30.02 in 10.0 mi NW 10.4 mph - N/A   Clear
5:15 AM 60.8 °F 55.4 °F 82% 30.02 in 10.0 mi NW 11.5 mph - N/A   Clear
5:35 AM 60.8 °F 55.4 °F 82% 30.02 in 10.0 mi NW 10.4 mph - N/A   Clear
5:55 AM 60.8 °F 53.6 °F 77% 30.02 in 10.0 mi NW 12.7 mph - N/A   Clear
6:15 AM 60.8 °F 53.6 °F 77% 30.01 in 10.0 mi NW 13.8 mph - N/A   Clear
6:35 AM 60.8 °F 53.6 °F 77% 30.02 in 10.0 mi NW 12.7 mph - N/A   Clear
6:55 AM 60.8 °F 53.6 °F 77% 30.02 in 10.0 mi NW 11.5 mph - N/A   Clear
7:15 AM 60.8 °F 53.6 °F 77% 30.02 in 10.0 mi NW 12.7 mph 18.4 mph N/A   Clear
7:35 AM 60.8 °F 53.6 °F 77% 30.03 in 10.0 mi NW 15.0 mph 21.9 mph N/A   Clear
7:55 AM 60.8 °F 53.6 °F 77% 30.03 in 10.0 mi NW 15.0 mph 20.7 mph N/A   Clear
8:15 AM 62.6 °F 55.4 °F 77% 30.04 in 10.0 mi NW 15.0 mph 21.9 mph N/A   Clear
8:35 AM 62.6 °F 55.4 °F 77% 30.04 in 10.0 mi NW 15.0 mph 21.9 mph N/A   Partly Cloudy
8:55 AM 64.4 °F 55.4 °F 73% 30.04 in 10.0 mi NW 12.7 mph 17.3 mph N/A   Scattered Clouds
9:15 AM 64.4 °F 55.4 °F 73% 30.05 in 10.0 mi NW 15.0 mph 23.0 mph N/A   Mostly Cloudy
9:35 AM 64.4 °F 55.4 °F 73% 30.05 in 10.0 mi NW 11.5 mph 18.4 mph N/A   Mostly Cloudy
9:55 AM 68.0 °F 55.4 °F 64% 30.05 in 10.0 mi NW 16.1 mph 20.7 mph N/A   Scattered Clouds
10:15 AM 69.8 °F 57.2 °F 64% 30.05 in 10.0 mi NW 18.4 mph 21.9 mph N/A   Mostly Cloudy
10:35 AM 69.8 °F 57.2 °F 64% 30.05 in 10.0 mi NNW 13.8 mph 24.2 mph N/A   Scattered Clouds
10:55 AM 69.8 °F 57.2 °F 64% 30.05 in 10.0 mi NNW 15.0 mph 25.3 mph N/A   Scattered Clouds
11:15 AM 69.8 °F 57.2 °F 64% 30.06 in 10.0 mi NNW 15.0 mph 25.3 mph N/A   Mostly Cloudy
11:35 AM 69.8 °F 57.2 °F 64% 30.06 in 10.0 mi NNW 15.0 mph 21.9 mph N/A   Overcast
11:55 AM 71.6 °F 57.2 °F 60% 30.06 in 10.0 mi NNW 13.8 mph 23.0 mph N/A   Mostly Cloudy
12:15 PM 71.6 °F 57.2 °F 60% 30.06 in 10.0 mi NNW 12.7 mph 24.2 mph N/A   Mostly Cloudy
12:35 PM 71.6 °F 57.2 °F 60% 30.05 in 10.0 mi NNW 16.1 mph 23.0 mph N/A   Mostly Cloudy
12:55 PM 73.4 °F 57.2 °F 57% 30.06 in 10.0 mi NNW 17.3 mph 28.8 mph N/A   Mostly Cloudy
1:15 PM 73.4 °F 55.4 °F 53% 30.06 in 10.0 mi NNW 16.1 mph 25.3 mph N/A   Scattered Clouds
1:35 PM 75.2 °F 57.2 °F 53% 30.06 in 10.0 mi NNW 15.0 mph 26.5 mph N/A   Scattered Clouds
1:55 PM 75.2 °F 55.4 °F 50% 30.06 in 10.0 mi NNW 21.9 mph 25.3 mph N/A   Partly Cloudy
2:15 PM 75.2 °F 55.4 °F 50% 30.06 in 10.0 mi NNW 20.7 mph 27.6 mph N/A   Scattered Clouds
2:35 PM 75.2 °F 55.4 °F 50% 30.06 in 10.0 mi NNW 19.6 mph 26.5 mph N/A   Scattered Clouds
2:55 PM 75.2 °F 53.6 °F 47% 30.06 in 10.0 mi NNW 18.4 mph 28.8 mph N/A   Scattered Clouds
3:15 PM 75.2 °F 53.6 °F 47% 30.06 in 10.0 mi North 15.0 mph 24.2 mph N/A   Mostly Cloudy
3:35 PM 75.2 °F 53.6 °F 47% 30.06 in 10.0 mi NNW 18.4 mph 26.5 mph N/A   Partly Cloudy
3:55 PM 77.0 °F 53.6 °F 44% 30.06 in 10.0 mi NNW 17.3 mph 24.2 mph N/A   Mostly Cloudy
4:15 PM 73.4 °F 51.8 °F 47% 30.06 in 10.0 mi NNW 15.0 mph 24.2 mph N/A   Scattered Clouds
4:35 PM 75.2 °F 53.6 °F 47% 30.06 in 10.0 mi North 16.1 mph 21.9 mph N/A   Partly Cloudy
4:55 PM 75.2 °F 51.8 °F 44% 30.06 in 10.0 mi NNW 16.1 mph 25.3 mph N/A   Partly Cloudy
5:35 PM 75.2 °F 50.0 °F 41% 30.06 in 10.0 mi NNW 17.3 mph 24.2 mph N/A   Scattered Clouds
5:55 PM 75.2 °F 50.0 °F 41% 30.06 in 10.0 mi North 13.8 mph 21.9 mph N/A   Partly Cloudy
6:15 PM 73.4 °F 48.2 °F 41% 30.06 in 10.0 mi NNW 11.5 mph 21.9 mph N/A   Partly Cloudy
6:35 PM 73.4 °F 50.0 °F 44% 30.06 in 10.0 mi NNW 17.3 mph 21.9 mph N/A   Clear
6:55 PM 73.4 °F 48.2 °F 41% 30.06 in 10.0 mi NNW 17.3 mph 21.9 mph N/A   Clear
7:15 PM 73.4 °F 48.2 °F 41% 30.06 in 10.0 mi NNW 12.7 mph 18.4 mph N/A   Clear
7:35 PM 71.6 °F 48.2 °F 43% 30.06 in 10.0 mi NNW 12.7 mph 16.1 mph N/A   Clear
7:55 PM 69.8 °F 48.2 °F 46% 30.06 in 10.0 mi NNW 9.2 mph 16.1 mph N/A   Clear
8:15 PM 68.0 °F 50.0 °F 52% 30.07 in 10.0 mi NW 10.4 mph - N/A   Clear
8:35 PM 66.2 °F 50.0 °F 56% 30.07 in 10.0 mi NW 10.4 mph - N/A   Clear
8:55 PM 66.2 °F 50.0 °F 56% 30.07 in 10.0 mi NW 10.4 mph - N/A   Clear
9:15 PM 64.4 °F 50.0 °F 59% 30.08 in 10.0 mi NW 8.1 mph - N/A   Clear
9:35 PM 62.6 °F 50.0 °F 63% 30.08 in 10.0 mi NW 8.1 mph - N/A   Clear
9:55 PM 62.6 °F 50.0 °F 63% 30.09 in 10.0 mi NW 10.4 mph - N/A   Clear
10:15 PM 62.6 °F 50.0 °F 63% 30.09 in 10.0 mi NW 10.4 mph - N/A   Clear
10:35 PM 62.6 °F 48.2 °F 59% 30.09 in 10.0 mi NW 11.5 mph - N/A   Clear
10:55 PM 62.6 °F 48.2 °F 59% 30.09 in 10.0 mi NW 9.2 mph - N/A   Clear
11:15 PM 60.8 °F 48.2 °F 63% 30.09 in 10.0 mi NW 8.1 mph - N/A   Clear
11:35 PM 60.8 °F 48.2 °F 63% 30.09 in 10.0 mi NW 8.1 mph - N/A   Clear
11:55 PM 60.8 °F 48.2 °F 63% 30.08 in 10.0 mi NW 9.2 mph - N/A   Clear